Location: Buckland
(65.9785°N, 161.1281°W)
Time: 21:21:30
(UTC+00:00)

SPROUT - Pass Details

Date: 18 January 2021
Orbit: 597 x 610 km, 97.9° (Epoch: 07 March)

Event Time Altitude Azimuth Distance (km) Brightness Sun altitude
Exits shadow 07:04:15 10° 357° (N) 1,952 ? -31.6°
Drops below altitude 10° 07:04:23 10° 355° (N) 1,976 ? -31.6°
Sets 07:07:38 0° 328° (NNW) 2,886 ? -31.9°
